Location: ??????????
(48.4699°N, 37.9573°E)
Time: 20:35:17
(UTC+00:00)

Cosmos 1626 - Pass Details

Date: 20 January 2021
Orbit: 490 x 493 km, 82.5° (Epoch: 02 March)

Event Time Altitude Azimuth Distance (km) Brightness Sun altitude
Rises 15:02:24 0° 196° (SSW) 2,565 6.3 -9.0°
Reaches altitude 10° 15:04:31 10° 199° (SSW) 1,687 5.4 -9.3°
Maximum altitude 15:08:11 62° 282° (WNW) 560 2.6 -9.9°
Drops below altitude 10° 15:11:53 10° 3° (N) 1,700 4.6 -10.4°
Sets 15:14:01 0° 7° (N) 2,587 5.5 -10.8°
